Air Resources Laboratory banner image
Air Resources Laboratory web site National Oceanic and Atmospheric Administration (NOAA)

wa roundup


Office: SEW

ASUS46 KSEW 250710
RWRWA

WASHINGTON REGIONAL WEATHER ROUNDUP
NATIONAL WEATHER SERVICE SEATTLE WA
1100 PM PST SAT FEB 24 2018

NOTE:"FAIR" INDICATES FEW OR NO CLOUDS BELOW 12,000 FEET WITH NO
SIGNIFICANT WEATHER AND/OR OBSTRUCTIONS TO VISIBILITY.

WAZ507-509-555>559-250800-
SEATTLE, TACOMA, EVERETT, AND VICINITY

CITY           SKY/WX    TMP DP  RH WIND       PRES   REMARKS
EVERETT        CLOUDY    40  34  79 SE20      30.04F
BOEING FIELD   CLOUDY    43  34  70 S17G28    30.10F
RENTON         CLOUDY    43  33  68 SE10G17   30.11S
SEATAC AIRPORT CLOUDY    41  33  73 S18G26    30.09F
JBLM-MCCHORD   CLOUDY    40  38  91 S14       30.11F
PUYALLUP       CLOUDY    39  34  81 S8        30.12F
BREMERTON      LGT RAIN  38  36  92 SW10      30.08F
JBLM-FT LEWIS  CLOUDY    40  38  93 S16       30.11F
TACOMA NARROWS CLOUDY    40  34  79 S15       30.10F
$$

WAZ001-503-506-510-514-515-250800-
NORTH INTERIOR

CITY           SKY/WX    TMP DP  RH WIND       PRES   REMARKS
BELLINGHAM     LGT RAIN  37  34  89 SE9       30.00F
FRIDAY HARBOR  LGT RAIN  40  36  86 S8        30.03F
EASTSOUND      LGT RAIN  41  37  87 S10G18    30.00F
PORT ANGELES   CLOUDY    41  30  65 CALM      30.01F
EDIZ HOOK      CLOUDY    42  35  74 N13       30.01F
PORT TOWNSEND  CLOUDY    36  34  93 SE8       30.03F
NAS WHIDBEY    CLOUDY    42  34  73 SE18G25   30.05F
ARLINGTON      LGT RAIN  38  32  79 SE13      30.07F
BURLINGTON     MOCLDY    39  34  81 SE8G15    30.04F
$$

WAZ020-022-039-040-504-511-512-250800-
SOUTHWEST INTERIOR

CITY           SKY/WX    TMP DP  RH WIND       PRES   REMARKS
SHELTON        LGT RAIN  40  37  89 S13       30.08F
OLYMPIA        CLOUDY    39  34  82 S12       30.13F
CHEHALIS         N/A     41  36  81 S8        30.16F
KELSO          CLOUDY    40  35  83 SE8       30.21F
VANCOUVER      CLOUDY    43  36  76 S6        30.24F
SCAPPOOSE, OR  CLOUDY    41  35  79 S5        30.22F
PORTLAND, OR   CLOUDY    43  36  76 S9        30.24F
$$

WAZ021-516-517-250800-
WASHINGTON COAST

CITY           SKY/WX    TMP DP  RH WIND       PRES   REMARKS
FORKS          LGT RAIN  42  39  89 SW9G21    30.03F
HOQUIAM        CLOUDY    45  40  82 SW16      30.13F
ASTORIA, OR    CLOUDY    45  39  79 SW14G23   30.17F
$$

WAZ019-023-024-040-567>569-250800-
CASCADE MOUNTAINS AND COLUMBIA GORGE

CITY           SKY/WX    TMP DP  RH WIND       PRES   REMARKS
STAMPEDE PASS  NOT AVBL
TROUTDALE, OR  CLOUDY    43  36  76 SW8       30.25F
HOOD RIVER, OR CLOUDY    37  32  81 CALM      30.16F
THE DALLES, OR CLOUDY    42  32  67 W6        30.16F
$$

WAZ026-027-041>044-520-521-250800-
EAST SLOPES

CITY           SKY/WX    TMP DP  RH WIND       PRES   REMARKS
OMAK           MOCLDY    31  22  69 S10       29.90F WCI  22
WENATCHEE      MOCLDY    32  18  56 E6        29.93F
ELLENSBURG     MOCLDY    34  23  64 W8        29.97F
YAKIMA         MOCLDY    34  21  59 CALM      30.01F
SUNNYSIDE ARPT PTSUNNY   37  22  53 SW6       30.06F
YAKIMA TC      PTSUNNY   29  18  63 CALM      29.98F
$$

WAZ028-034-035-250800-
COLUMBIA BASIN

CITY           SKY/WX    TMP DP  RH WIND       PRES   REMARKS
EPHRATA        MOCLDY    30  19  63 SW7       29.95F
MOSES LAKE     CLOUDY    36  23  59 SW14      29.97F
PASCO          MOCLDY    37  29  72 SW12      30.08F
RICHLAND ARPT  CLOUDY    37  30  75 S9        30.08F
HERMISTON, OR  CLOUDY    37  27  67 SW15      30.11F
$$

WAZ036>038-250800-
NORTHEAST WASHINGTON

CITY           SKY/WX    TMP DP  RH WIND       PRES   REMARKS
SPOKANE GEIGER MOCLDY    26  22  84 S15       29.92F WCI  14
SPOKANE FELTS  MOCLDY    28  23  81 VRB3      29.95F
FAIRCHILD AFB  MOCLDY    23  23 100 S14       29.90F WCI  10
COEURDALENE,ID CLOUDY    26  23  88 S6        29.95F
DEER PARK      MOCLDY    21  18  88 S9        29.92F
$$

WAZ029>033-250800-
SOUTHEAST WASHINGTON

CITY           SKY/WX    TMP DP  RH WIND       PRES   REMARKS
PULLMAN        MOCLDY    27  23  85 SW9       30.02S
LEWISTON, ID   CLOUDY    33  25  72 CALM      30.06S
WALLA WALLA    CLEAR     35  27  72 S13       30.10F WCI  26
PENDLETON, OR  CLEAR     35  23  61 SW15G26   30.10S WCI  25
$$


ASUS66 KSEW 250730
RTPSEW
Max/Min Temperature And Precipitation Table For Washington
National Weather Service Seattle WA
1130 PM PST Sat Feb 24 2018

:Western Washington Cooperative Station Observations
:
:These are the daily observations for the past 24 hours.
:Some temperature values are from the previous day.
:Some stations only report precipitation.

.BR SEA 0224  P DH23/TAIRZS/TAIRZI/PPDRZZ/SFDRZZ/SDIRZZ
:
:                               Obs    24hr  24hr   24hr  Snow  Snow
:ID    Station           Elev   time   high  low    pcpn  fall  dpth
:
CNCW1 :Concrete Dam       195   0600 :  29 /  21 /  0.60 / 10.5 / 11
PSBW1 :Poulsbo            217   0600 :     /     /    T  /     /  1
UBKW1 :Upper Baker Dam    690   0600 :  26 /  14 /  0.55 / 16.0 / 20
TLTW1 :Tolt Reservoir    2000   0800 :  30 /  20 /  0.41 / 4.0 /  4
DIAW1 :Diablo Dam         891   0800 :  27 /  15 /  0.63 / 10.5 / 13
NWMW1 :Newhalem(Gorge Dam)525   0800 :  28 /  19 /  0.72 / 13.0 / 16
HTUW1 :Humptulips         140   0700 :  33 /  26 /  1.11 /   M /  M
RLGW1 :Rainier,Longmire  2762   0800 :  28 /  14 /  0.63 / 5.0 / 10
ASFW1 :Rainier,Paradise  5427   0800 :  20 /  11 /  1.60 / 16.5 / 143
ROSW1 :Ross Dam          1236   0800 :  27 /  15 /  0.51 / 8.0 / 12
BARW1 :Baring             770   1000 :  33 /  18 /  0.63 / 6.0 /  6
FORW1 :Forks              350   1600 :  46 /  30 /  0.48 /   M /  M
TACW1 :Tacoma              25   1600 :  46 /  35 /  0.20 /   M /  M
KNTW1 :Kent                30   1700 :  46 /  29 /  0.15 /   M /  M
DYWW1 :Dryad              302   1900 :     /     /  0.38 /   M /  M
MNRW1 :Monroe             120   2000 :  40 /  30 /  0.10 / 0.0 /  0
:
:M = missing
:T = trace
:Precipitation measured in inches.
:Elevation measured in feet.
:Time of observation is in local standard time.
.End


These data are preliminary and have not undergone final
quality control by the National Centers for Environmental
Information (NCEI). Therefore, these data are subject to
revision. Final and certified climate data can be accessed
at www.ncei.noaa.gov.

$$